Terminal Aerodrome Forecast
Issued by NWS

Home | Current Version | Previous Version | Text Only | Print | Product List | Glossary On
Versions: 1 2 3 4 5 6 7 8 9 10 11 12 13 14 15 16 17 18 19 20 21 22 23 24 25 26 27 28 29 30
000
FTUS43 KICT 181007 AAC
TAFCNU
TAF AMD
KCNU 181007Z 1810/1906 07004KT 1 1/2SM -SN BKN005 OVC015
      TEMPO 1810/1814 2SM -SN SCT005 OVC015
     FM181400 VRB05KT 1/2SM FG SCT004 OVC007
     FM181800 07005KT 4SM BR BKN007 OVC015=

USA.gov is the U.S. government's official web portal to all federal, state and local government web resources and services.